Weather in Marina-di-Bibbona

Italy     43°14′43″N   10°32′00″E
temp.,
°C
wind,
m/s
gust,
m/s
humid.,
%
clouds,
%
prec.,
mm/h
press.,
hPa
HPBL,
m
18 may, wed
wed1823:00+18nne11785 0.0 101814
02:00+17ene22775 0.0 101841
05:00+17ne22760 0.0 101861
08:00+19ne22610 0.0 1019124
11:00+23nw33560 0.0 1019430
14:00+23w45610 0.0 1019657
17:00+22wnw44685 0.0 1019306
20:00+22ene14699 0.0 1019140
19 may, thu
thu1923:00+21ene48554 0.0 1022158
02:00+20ene47583 0.0 1022149
05:00+19ne46590 0.0 1022142
08:00+20ene34590 0.0 1023136
11:00+24nnw22425 0.0 1024429
14:00+24wsw44465 0.0 1024563
17:00+23sw335312 0.0 1024292
20:00+21s226345 0.0 102528
20 may, fri
fri2023:00+19se33699 0.0 102651
02:00+18ese226159 0.0 102660
05:00+17e2266100 0.0 102673
08:00+19ese126274 0.0 1027139
11:00+22ssw356814 0.0 1028444
14:00+22ssw566719 0.0 1027466
17:00+22ssw46595 0.0 1026363
20:00+21s35654 0.0 1025128
21 may, sat
sat2123:00+18se33733 0.0 102598
02:00+17se22685 0.0 102475
05:00+17ese22645 0.0 102376
08:00+19se12605 0.0 1022145
11:00+21sw23645 0.0 1021387
14:00+21sw346690 0.0 1020459
17:00+22wsw246478 0.0 1019409
20:00+20sw0171100 0.0 101832
22 may, sun
sun2223:00+19e22765 0.0 101740
02:00+18ene33834 0.0 101669
05:00+18ne338427 0.0 101572
08:00+20ne22735 0.0 1015159
11:00+23nw336518 0.0 1014436
14:00+22w437010 0.0 1013389
17:00+22wnw23706 0.0 1012272
20:00+21w11775 0.0 101219